Location: Góry Miechowskie
(50.3599°N, 20.1803°E)
Time: 02:25:09
(UTC+00:00)

Transit 2A Rocket - Pass Details

Date: 15 September 2024
Orbit: 582 x 908 km, 66.7° (Epoch: 10 October)

Event Time Altitude Azimuth Distance (km) Brightness Sun altitude
Rises 02:58:37 0° 306° (NW) 3,546 8.1 -12.7°
Reaches altitude 10° 03:02:12 10° 326° (NW) 2,597 7.6 -12.2°
Maximum altitude 03:06:00 17° 5° (N) 2,126 7.6 -11.6°
Drops below altitude 10° 03:09:42 10° 44° (NE) 2,534 8.8 -11.1°
Sets 03:13:08 0° 65° (ENE) 3,420 10.5 -10.5°
